星链-3722 (STARLINK-3722 )

导读

STARLINK-3722是美国SpaceX公司星链星座的组成卫星,于2022年3月19日发射。星链项目旨在打造全球低轨卫星互联网星座,为偏远、基础设施匮乏区域提供高速低延迟宽带服务。该卫星属于低轨卫星,搭载氪离子霍尔推进器,通过地面测控分阶段调轨,最终进入550公里左右的工作轨道,服务星座组网,支撑全球互联服务。

Basic Information
目录编号:
52089
目录名称:
STARLINK-3722
国际标识:
2022-029B
轨道中心:
EARTH
卫星名称:
星链-3722
卫星全名:
星链-3722 (STARLINK-3722 )
卫星状态:
已陨落 最后检测时间 2025-12-13
发射日期:
2022-03-19 UTC
国别 :
美国 (US)
星等 :
--
Orbit Information
数据来源 国际轨道数据
星历时间: 2025-12-13T12:00:28+0800
轨道信息已过期186天
半长轴: 6523.755km
偏心率: 0.0005316
轨道倾角: 53.201°
近地点辐角 296.389°
升交点赤经 81.658°
平近点角 63.661°
近地点: 142.151km
远地点: 149.089km
周期: 87.399分钟
每日圈数: 16.476174
Detailed Information
固有亮度:
5
最大亮度:
2.5
卫星平台:
Starlink v1.5
覆盖范围:
全球
运营商:
太空探索技术公司
运营商所在国:
美国
制造商(研发单位):
太空探索技术公司
制造商所在国:
美国
使用方式:
暂无
Satellite Introduction
星链(Starlink)计划是由太空探索技术公司(SpaceX)提出的一个巨型低轨卫星互联网星座项目,计划在2019年至2024年间在太空搭建由约1.2万颗卫星组成的“星链”网络,其中1584颗将部署在地球上空550千米处的近地轨道,并从2020年开始工作。该卫星仍在工作。